This demonstration page uses our WeatherBlox Daily Observations layout. Learn more.

Left ArrowRight Arrow

39.29038, -76.61219

Hourly Observations for November 5, 2016

Temp ( °F °C ) Dew Point ( °F °C ) Humidity (%) Winds ( mph kmh ) Pressure ( in mb ) Visibility ( mi km ) Precip ( " mm )
12:54 am 00:54 undefined 51 10.6 32 0 48 48 undefined N/A 30.28 1025 N/A 0.00 0.00
1:54 am 01:54 undefined 50 10 32 0 50 50 undefined N/A 30.28 1025 N/A 0.00 0.00
2:54 am 02:54 undefined 49 9.4 32 0 52 52 undefined N/A 30.29 1026 N/A 0.00 0.00
3:54 am 03:54 undefined 48 8.9 33 0.6 56 56 undefined N/A 30.29 1026 N/A 0.00 0.00
4:54 am 04:54 undefined 48 8.9 33 0.6 56 56 undefined N/A 30.29 1026 N/A 0.00 0.00
5:54 am 05:54 undefined 47 8.3 33 0.6 59 59 undefined N/A 30.31 1026 N/A 0.00 0.00
6:54 am 06:54 undefined 46 7.8 33 0.6 61 61 undefined N/A 30.30 1026 N/A 0.00 0.00
7:54 am 07:54 undefined 45 7.2 33 0.6 63 63 undefined N/A 30.32 1027 N/A 0.00 0.00
8:54 am 08:54 undefined 48 8.9 34 1.1 58 58 undefined N/A 30.33 1027 N/A 0.00 0.00
9:54 am 09:54 undefined 53 11.7 35 1.7 51 51 undefined N/A 30.33 1027 N/A 0.00 0.00
10:54 am 10:54 undefined 56 13.3 36 2.2 47 47 undefined N/A 30.32 1027 N/A 0.00 0.00
11:54 am 11:54 undefined 60 15.6 37 2.8 42 42 undefined N/A 30.30 1026 N/A 0.00 0.00
12:54 pm 12:54 undefined 63 17.2 37 2.8 38 38 undefined N/A 30.28 1025 N/A 0.00 0.00
1:54 pm 13:54 undefined 64 17.8 36 2.2 35 35 undefined N/A 30.25 1024 N/A 0.00 0.00
2:54 pm 14:54 undefined 65 18.3 35 1.7 33 33 undefined N/A 30.23 1024 N/A 0.00 0.00
3:54 pm 15:54 undefined 65 18.3 34 1.1 32 32 undefined N/A 30.22 1023 N/A 0.00 0.00
4:54 pm 16:54 undefined 65 18.3 36 2.2 34 34 undefined N/A 30.22 1023 N/A 0.00 0.00
5:54 pm 17:54 undefined 63 17.2 36 2.2 37 37 undefined N/A 30.22 1024 N/A 0.00 0.00
6:54 pm 18:54 undefined 60 15.6 36 2.2 41 41 undefined N/A 30.23 1024 N/A 0.00 0.00
7:54 pm 19:54 undefined 59 15 37 2.8 44 44 undefined N/A 30.23 1024 N/A 0.00 0.00
8:54 pm 20:54 undefined 57 13.9 37 2.8 47 47 undefined N/A 30.23 1024 N/A 0.00 0.00
9:54 pm 21:54 undefined 56 13.3 38 3.3 51 51 undefined N/A 30.23 1024 N/A 0.00 0.00
10:54 pm 22:54 undefined 57 13.9 37 2.8 47 47 undefined N/A 30.24 1024 N/A 0.00 0.00
11:54 pm 23:54 undefined 58 14.4 36 2.2 44 44 undefined N/A 30.24 1024 N/A 0.00 0.00

Powered by AerisWeather